Other Public Products
Issued by NWS Grand Forks, ND

Home | Current Version | Previous Version | Text Only | Print | Product List | Glossary Off
Versions: 1 2 3 4 5 6 7 8 9 10 11 12 13 14 15 16 17 18 19 20 21 22 23 24 25 26 27 28 29 30 31 32 33 34 35 36 37 38 39 40 41 42 43 44 45 46 47 48 49 50

000
FPUS83 KFGF 300810
OPUFGF
PRAIRIE TO PINES WEATHER ROUNDUP
NATIONAL WEATHER SERVICE EASTERN NORTH DAKOTA/GRAND FORKS ND
300 AM CDT TUE JUN 30 2015

 **SATELLITE DATA USED TO AUGMENT SKY COVER AT AUTOMATED STATIONS**
 *****  WEATHER ACROSS EASTERN NORTH DAKOTA  *****

CITY           SKY/WX    TMP DP  RH WIND       PRES   REMARKS
GRAND FORKS    PTCLDY    56  55  97 NW5       29.94S FOG
GRAND FORKS AF PTCLDY    58  57  95 N5        29.95S
GRAND CITY NWS   N/A     59 N/A N/A N1          N/A
BUXTON         NOT AVBL
DEVILS LAKE    MOCLDY    61  55  82 E7        29.97F
FARGO          PTCLDY    60  57  89 NE5       29.93S
WAHPETON ARPT  PTSUNNY   61  57  88 N6        29.93R
$$

 *****  WEATHER ACROSS CENTRAL AND WESTERN NORTH DAKOTA  *****

CITY           SKY/WX    TMP DP  RH WIND       PRES   REMARKS
JAMESTOWN      CLOUDY    64  60  87 E5        29.95F
BISMARCK       CLOUDY    69  65  86 SE3       29.94S
MINOT          CLOUDY    67  62  84 E7        29.94R
MINOT AFB      CLOUDY    66  66 100 E6        29.94R
GARRISON         N/A     70  62  76 E7        29.95S
WILLISTON      CLOUDY    70  57  63 CALM      29.97S HAZE
DICKINSON      CLOUDY    68  61  78 NE5       29.93F
HETTINGER      CLOUDY    66  61  84 NW3       29.94S
$$

 *****  OTHER OBSERVATIONS NORTHEAST NORTH DAKOTA  *****

CITY           SKY/WX    TMP DP  RH WIND       PRES   REMARKS
WALHALLA       FAIR      59  59 100 MISG      29.97S FOG
LANGDON        FOG       55  55 100 CALM      30.00R VSB<1/4
CAVALIER       FAIR      59  59 100 NW3       29.97R FOG
GRAFTON        FAIR      59  59 100 N5        29.96S
CANDO          CLOUDY    59  59 100 E3        29.98F
FORT TOTTEN      N/A     63  60  91 CALM      29.95S
ROLLA          CLOUDY    57  57 100 N3        30.00F FOG
RUGBY          NOT AVBL
 ***** THE ABOVE OBSERVATIONS ARE NON NWS ARE NOT QUALITY
        CONTROLLED AND MAY MIS-REPORT RAIN FOR SNOW...
$$

 *****  OTHER OBSERVATIONS SOUTHEAST NORTH DAKOTA *****

CITY           SKY/WX    TMP DP  RH WIND       PRES   REMARKS
COOPERSTOWN    NOT AVBL
VALLEY CITY    CLOUDY    63  63 100 NE6       29.95F
OAKES            N/A     63  63 100 NE6       29.93F
GWINNER        NOT AVBL
SHEYENNE NWR     N/A     62  59  91 NE6       29.95S
BUFFALO        NOT AVBL
WYNDMERE       NOT AVBL
 ***** THE ABOVE OBSERVATIONS ARE NON NWS ARE NOT QUALITY
       CONTROLLED AND MAY MIS-REPORT RAIN FOR SNOW...
$$

  *****  WEATHER ACROSS NORTHERN MINNESOTA  *****

CITY           SKY/WX    TMP DP  RH WIND       PRES   REMARKS
FLAG ISLAND    CLEAR     61  54  77 E3        29.95S
WARROAD        CLEAR     64  57  77 E10       29.96S
ROSEAU         CLEAR     55  50  82 CALM      29.96S
HALLOCK        CLEAR     55  54  94 CALM      29.95R
THF RVR FALLS  CLEAR     61  57  88 N3        29.95S
HALSTAD        NOT AVBL
FOSSTON        CLEAR     54  52  94 CALM      29.95S
BAUDETTE       CLEAR     56  52  86 NE3       29.95R
WASKISH        CLEAR     57  54  88 NE7       29.95R
CROOKSTON      CLEAR     55  54  94 CALM        N/A
$$
  *****  WEATHER ACROSS CENTRAL AND WEST MINNESOTA  *****

CITY           SKY/WX    TMP DP  RH WIND       PRES   REMARKS
BEMIDJI        CLEAR     55  53  94 CALM      29.93S
PARK RAPIDS    CLEAR     58  55  90 NW3       29.93S
WADENA         CLEAR     57  55  94 CALM      29.93S
DETROIT LAKES  CLEAR     63  57  82 N3        29.95S
MOORHEAD       PTCLDY    57  57 100 CALM      29.94S
FERGUS FALLS   PTCLDY    63  63 100 NE3       29.92S
ELBOW LAKE     FAIR      63  62  98 NE3       29.92S
MORRIS MN      PTCLDY    63  61  94 N6        29.90S FOG
STAPLES        CLEAR     57  55  94 CALM      29.93R
WHEATON        MOCLDY    61  59  94 N3        29.93S
$$
  *****  WEATHER ELSEWHERE ACROSS MINNESOTA  *****

CITY           SKY/WX    TMP DP  RH WIND       PRES   REMARKS
DULUTH         MOCLDY    61  56  83 NE6       29.89R
INTRNTL FALLS  PTCLDY    55  51  86 NE5       29.94F
ELY            CLOUDY    57  52  82 N5        29.92S
CLOQUET        CLEAR     57  54  88 N5        29.89S
BRAINERD       CLEAR     60  56  86 CALM      29.92R
HIBBING        CLEAR     56  54  93 N3        29.91S
ALEXANDRIA     CLEAR     64  60  87 NE7       29.94R
SAINT CLOUD    CLEAR     60  58  92 N3        29.89R
MINNEAPOLIS    CLEAR     64  62  93 CALM      29.85S
$$

  *****  WEATHER ACROSS SOUTH DAKOTA  *****

CITY           SKY/WX    TMP DP  RH WIND       PRES   REMARKS
SIOUX FALLS    CLOUDY    65  62  90 CALM      29.92F
BROOKINGS      PTCLDY    61  55  82 W3        29.95R
WATERTOWN      PTCLDY    63  60  90 N3        29.94R
HURON          CLOUDY    69  64  84 W7        29.95R
SISSETON         N/A     62  60  93 N6        29.91S
ABERDEEN       MOCLDY    65  61  87 CALM      29.94S
MITCHELL       MOCLDY    69  66  90 W8        29.95R THUNDER
PIERRE         MOCLDY    68  61  78 NE12      29.90S
MOBRIDGE       MOCLDY    72  63  73 E8        29.91R
RAPID CITY     CLEAR     71  56  58 SW9       29.99F
$$

  *****  SOME WEATHER IN NEARBY STATES *****

CITY           SKY/WX    TMP DP  RH WIND       PRES   REMARKS
GLASGOW MT     NOT AVBL
GREAT FALLS MT LGT RAIN  68  61  78 S10       30.00F
CHEYENNE WY    PTCLDY    59  45  59 W12       30.24F
SCOTTSBLUFF NE CLEAR     63  55  75 CALM      30.09F
OMAHA NE       CLOUDY    68  64  87 SE5       29.91F
DES MOINES IA  CLOUDY    68  62  81 W5        29.86S
DAVENPORT IA   PTCLDY    62  60  93 W6        29.81F
CHICAGO IL     CLOUDY    65  63  93 W3        29.76F
EAU CLAIRE WI  FOG       54  54 100 CALM      29.82F VSB 3/4
LA CROSSE WI   FOG       60  60 100 N6        29.82S VSB 1
$$

  *****  SOME NATIONAL WEATHER *****

CITY           SKY/WX    TMP DP  RH WIND       PRES   REMARKS
LA GUARDIA NY  PTCLDY    71  57  61 CALM      29.95S
RALEIGH NC     PTCLDY    70  61  73 CALM      29.93S
ATLANTA GA     MOCLDY    74  66  76 SW8       30.01S
NEW ORLEANS LA CLOUDY    78  70  76 SW7       30.04F
OKLAHOMA CITY  PTCLDY    70  66  87 W8        30.00F
ALBUQUERQUE NM PTCLDY    76  46  34 E17       30.23R
SALT LAKE CITY MOCLDY    84  53  34 SE7       30.01S
LOS ANGELES CA PTCLDY    67  60  78 NW5       29.90F
BOISE ID       MOCLDY    86  54  33 SE3       29.95R
SEATTLE WA     CLEAR     63  57  81 SW7       30.07S
$$

*** WEATHER ACROSS MANITOBA...SASKATCHEWAN AND ONTARIO ***
                ***ONTARIO***

CITY           SKY/WX    TMP DP  RH WIND       PRES   REMARKS
GERALDTON      MOCLDY    43  39  87 NE6       29.96R
THUNDER BAY    CLOUDY    54  48  82 N8        29.91S
SIOUX LOOKOUT  PTCLDY    45  43  93 E3        29.99S
TORONTO        MOCLDY    61  57  88 E2        29.86R
BIG TROUT LK   CLEAR     39  39 100 S5        30.03F
PICKLE LAKE    NOT AVBL
DRYDEN         CLEAR     52  50  93 E2        29.98S
KENORA         CLEAR     55  54  94 E7        29.98R
$$
                *** MANITOBA***

CITY           SKY/WX    TMP DP  RH WIND       PRES   REMARKS
BRANDON        CLOUDY    57  57 100 NE8       29.99S
DAUPHIN        CLEAR     55  54  94 VRB2      30.00R FOG
ISLAND LAKE    PTCLDY    50  45  81 VRB2      30.02S
PILOT MOUND      N/A     59  57  94 NE6         N/A
THE PAS        CLEAR     55  54  94 S7        29.98F
THOMPSON       PTCLDY    45  43  93 CALM      30.00S
WINNIPEG       CLEAR     57  55  94 NE5       29.98R
LYNN LAKE      MOCLDY    55  54  94 S6        29.96F
CHURCHILL      PTCLDY    48  45  87 S8        29.94F
GILLAM         PTCLDY    45  37  76 S6        30.02S
$$
                ***SASKATCHEWAN***

CITY           SKY/WX    TMP DP  RH WIND       PRES   REMARKS
ESTEVAN          N/A     63  59  88 N5        29.97F SMOKE
KINDERSLEY     CLOUDY    61  59  94 NE9       29.99F
LLOYDMINSTER   LGT RAIN  61  59  94 W6        30.02F
PRINCE ALBERT    N/A     57  57 100 NE3       29.98R SMOKE
REGINA         LGT RAIN  61  59  94 VRB2      30.00S SMOKE


USA.gov is the U.S. government's official web portal to all federal, state and local government web resources and services.